This is the latest recevied weather packets stored in our database for station/object LA5PPA-1. If no packets are shown the sender has not sent any weather packets the latest 10 day(s).
| Time | Temp. | Humidity | Pressure | Rain* | Wind** | Luminosity | Snow |
|---|---|---|---|---|---|---|---|
| 1777554128 | 17.22° C | 21% | 1034 hPa | 0 mm | - | - | - |
| 1777553828 | 17.22° C | 22% | 1034 hPa | 0 mm | - | - | - |
| 1777553528 | 17.22° C | 21% | 1034 hPa | 0 mm | - | - | - |
| 1777553228 | 17.22° C | 21% | 1034 hPa | 0 mm | - | - | - |
| 1777552928 | 17.22° C | 24% | 1034 hPa | 0 mm | - | - | - |
| 1777552869 | 16.67° C | 21% | 1034 hPa | 0 mm | - | - | - |
| 1777552628 | 16.67° C | 23% | 1034.1 hPa | 0 mm | - | - | - |
| 1777552328 | 16.67° C | 23% | 1034 hPa | 0 mm | - | - | - |
| 1777552209 | 16.67° C | 22% | 1034.1 hPa | 0 mm | - | - | - |
| 1777552028 | 16.67° C | 21% | 1034.1 hPa | 0 mm | - | - | - |
| 1777551728 | 17.22° C | 21% | 1034.1 hPa | 0 mm | - | - | - |
| 1777551549 | 17.22° C | 22% | 1034.1 hPa | 0 mm | - | - | - |
| 1777551428 | 17.22° C | 22% | 1034.1 hPa | 0 mm | - | - | - |
| 1777551128 | 16.67° C | 22% | 1034.1 hPa | 0 mm | - | - | - |
| 1777550889 | 16.67° C | 22% | 1034.2 hPa | 0 mm | - | - | - |
| 1777550828 | 16.67° C | 24% | 1034.2 hPa | 0 mm | - | - | - |
| 1777550528 | 16.67° C | 22% | 1034.3 hPa | 0 mm | - | - | - |
| 1777550228 | 16.11° C | 23% | 1034.3 hPa | 0 mm | - | - | - |
| 1777549928 | 16.11° C | 23% | 1034.3 hPa | 0 mm | - | - | - |
| 1777549628 | 16.67° C | 25% | 1034.3 hPa | 0 mm | - | - | - |
| 1777549569 | 16.11° C | 24% | 1034.3 hPa | 0 mm | - | - | - |
| 1777549328 | 16.11° C | 23% | 1034.3 hPa | 0 mm | - | - | - |
| 1777549028 | 16.11° C | 24% | 1034.4 hPa | 0 mm | - | - | - |
| 1777548909 | 15.56° C | 25% | 1034.4 hPa | 0 mm | - | - | - |
| 1777548728 | 15.56° C | 24% | 1034.4 hPa | 0 mm | - | - | - |
* Rain latest hour (hover to see other rain measurements)
** Current wind speed in m/s (hover to see current wind gust speed)